978  
ASUS43 KEAX 241815  
RWREAX  
 
WEATHER ROUNDUP FOR EASTERN KANSAS AND NORTHWEST MISSOURI  
NATIONAL WEATHER SERVICE KANSAS CITY/PLEASANT HILL MO  
100 PM CDT WED JUL 24 2024  
 
KSZ040-057-103>105-MOZ028-029-037-043-241900-   
..KANSAS CITY METROPOLITAN AREA
 
 
 
CITY SKY/WX TMP DP RH WIND PRES REMARKS
 
K.C. INTL SUNNY 85 69 58 SW8 30.14F  
6HR MIN TEMP: 66; 6HR MAX TEMP: 86;  
 
K.C. DOWNTOWN SUNNY 88 65 46 SW8 30.13S HX 90  
6HR MIN TEMP: 72; 6HR MAX TEMP: 88;  
 
LEES SUMMIT SUNNY 88 67 49 VRB6 30.16S HX 91  
6HR MIN TEMP: 71; 6HR MAX TEMP: 88;  
 
OLATHE - IXD SUNNY 89 65 44 VRB6 30.16S HX 91  
6HR MIN TEMP: 19; 6HR MAX TEMP: 89;  
 
OLATHE - OJC SUNNY 87 66 49 W9 30.16S  
6HR MIN TEMP: 67; 6HR MAX TEMP: 87;  
 
LAWRENCE SUNNY 90 68 48 SW6 30.14S HX 94  
 

 
 
MOZ001>008-011>017-020>025-030>033-038>040-044>046-053-054-241900-   
..NORTHERN AND CENTRAL MISSOURI
 
 
 
CITY SKY/WX TMP DP RH WIND PRES REMARKS
 
ST. JOSEPH SUNNY 88 72 58 VRB3 30.12F HX 94  
6HR MIN TEMP: 66; 6HR MAX TEMP: 88;  
 
MOSBY SUNNY 86 63 45 S3 30.14S  
HARRISONVILLE SUNNY 88 64 45 N3 30.18S  
WHITEMAN AFB MOSUNNY 87 67 51 W8 30.13S  
6HR MIN TEMP: 65; 6HR MAX TEMP: 87;  
 
CLINTON SUNNY 86 68 54 CALM 30.16R  
SEDALIA SUNNY 87 68 52 VRB3 30.17R HX 90  
6HR MIN TEMP: 70; 6HR MAX TEMP: 87;  
 
MARSHALL SUNNY 82 70 65 CALM 30.17R  
CHILLICOTHE N/A 86 71 60 SW3 30.14F HX 91  
6HR MIN TEMP: 67; 6HR MAX TEMP: 87;  
 
MOBERLY MOSUNNY 86 66 51 W6 30.16S  
KIRKSVILLE MOSUNNY 85 68 56 W6 30.15F  
6HR MIN TEMP: 68; 6HR MAX TEMP: 86;  
 

 
 
MOZ041-047>049-056>058-063>065-088>090-097-241900-   
..EASTERN AND SOUTHERN MISSOURI
 
 
 
CITY SKY/WX TMP DP RH WIND PRES REMARKS
 
ST. LOUIS INTL MOSUNNY 87 66 49 VRB3 30.14F  
6HR MIN TEMP: 73; 6HR MAX TEMP: 89;  
 
SPIRIT OF STL MOSUNNY 85 68 56 CALM 30.13S  
COLUMBIA SUNNY 86 67 52 W5 30.16S  
JEFFERSON CITY SUNNY 87 66 49 CALM 30.15S  
MEXICO MOSUNNY 84 70 61 SW3 30.15F  
HANNIBAL PTSUNNY 86 66 51 W7 30.14F  
ROLLA SUNNY 85 66 53 CALM 30.18S  
LEBANON PTSUNNY 84 68 58 CALM 30.19S  
OSAGE BEACH PTSUNNY 85 67 54 S3 30.17S  
SPRINGFIELD MOSUNNY 85 67 54 NW3 30.17S  
BRANSON PTSUNNY 84 68 58 CALM 30.20S  
JOPLIN MOSUNNY 88 68 51 N6 30.17S HX 91  
WEST PLAINS PTSUNNY 85 66 53 VRB3 30.19S  
SIKESTON MOSUNNY 87 71 58 SE5 30.14S HX 92  
 

 
 
IAZ060-094-KSZ022-034>040-054-083-096-NEZ052-066-093-241900-    
..KANSAS...SOUTHEAST NEBRASKA AND IOWA
 
 
 
CITY SKY/WX TMP DP RH WIND PRES REMARKS
 
TOPEKA SUNNY 91 66 43 W8 30.13S HX 93  
6HR MIN TEMP: 68; 6HR MAX TEMP: 91;  
 
MANHATTAN SUNNY 90 68 48 CALM 30.13F HX 94  
EMPORIA MOSUNNY 92 63 38 W7 30.15S HX 93  
OTTAWA SUNNY 90 70 51 W6 30.14S HX 95  
CHANUTE MOSUNNY 91 67 44 W3 30.16S HX 94  
SALINA SUNNY 94 61 33 MISG 30.14S HX 94  
WICHITA MOSUNNY 91 64 40 VRB6 30.14F HX 92  
OMAHA SUNNY 88 64 44 NE3 30.10F  
LINCOLN SUNNY 89 68 49 S5 30.12S HX 93  
FALLS CITY SUNNY 86 72 62 E5 30.12S HX 92  
LAMONI MOSUNNY 86 68 54 W6 30.13F  
DES MOINES MOSUNNY 87 69 54 VRB5 30.12S HX 91  
 

 
 
 
 
CLICK HERE TO GO TO PREVIOUS BULLETINS.

The Nexlab MO Page
The Nexlab KS Page Main Text Page